Location: Castro Valley
(37.6940°N, 122.0850°W)
Time: 06:43:17
(UTC-07:00)

Amateur Radio Satellites - All Passes

Search period start: 16 April 2014 06:13
Search period end: 17 April 2014 06:13
Location: Castro Valley, 37.6940°N, 122.0850°W

Satellite Date Start Highest point End Downlink Frequencies (MHz)
Time Altitude Azimuth
JAS-1B 16 Apr 06:13:31 06:18:26 31° 293° (WNW) 06:23:24 435.800 - 435.900 CW/SSB
STRAND 1 16 Apr 06:13:45 06:18:08 29° 68° (ENE) 06:22:30 ?
RS-15 16 Apr 07:01:13 07:11:47 46° 109° (ESE) 07:21:59 29.354 - 29.394 USB, Beacon 29.352 USB
Hamsat 16 Apr 07:33:34 07:37:55 77° 283° (WNW) 07:42:16 145.90 MHz
AO-7 16 Apr 07:49:43 07:55:23 21° 306° (NW) 08:01:03 29.400 - 29.500 MHz
STRAND 1 16 Apr 07:52:46 07:57:13 30° 263° (W) 08:01:42 ?
MaSat-1 16 Apr 08:09:50 08:12:42 48° 65° (ENE) 08:16:04 437.345 MHz
SO-67 16 Apr 08:12:40 08:16:06 53° 100° (E) 08:19:31 435.3500 MHz FM
JAS-2 16 Apr 08:16:18 08:21:38 74° 103° (ESE) 08:27:28 435.800 - 435.900 CW/SSB, 435.910 FM
RS-15 16 Apr 09:13:06 09:23:59 51° 310° (NW) 09:34:36 29.354 - 29.394 USB, Beacon 29.352 USB
Sapphire 16 Apr 09:52:43 09:56:27 19° 48° (NE) 10:00:11 437.095 MHz 1200 baud AX-25 AFSK
PANSAT 16 Apr 10:02:32 10:03:35 11° 162° (SSE) 10:04:38 not established
JAS-2 16 Apr 10:03:48 10:06:14 13° 297° (WNW) 10:08:43 435.800 - 435.900 CW/SSB, 435.910 FM
HO-68 16 Apr 10:19:36 10:26:47 71° 104° (ESE) 10:33:56 435.675 MHz FM
Oscar 11 16 Apr 10:33:41 10:37:50 42° 99° (E) 10:41:57 145.825 FM, Beacon 2401.500 USB
PCSat 16 Apr 10:37:03 10:42:13 43° 57° (ENE) 10:47:21 145.825 MHz
RS-15 16 Apr 11:32:52 11:39:52 18° 340° (NNW) 11:46:49 29.354 - 29.394 USB, Beacon 29.352 USB
Sapphire 16 Apr 11:34:59 11:40:22 65° 246° (WSW) 11:45:41 437.095 MHz 1200 baud AX-25 AFSK
PANSAT 16 Apr 11:40:19 11:43:09 19° 174° (S) 11:45:59 not established
FUNcube-1 16 Apr 11:49:29 11:53:43 84° 283° (WNW) 11:58:02 145.950 - 145.970 MHz USB
KITSAT 1 16 Apr 11:54:13 12:01:09 30° 46° (NE) 12:08:01 435.175 FM
HO-68 16 Apr 12:08:38 12:13:47 22° 301° (WNW) 12:18:56 435.675 MHz FM
Saudisat 1A 16 Apr 12:08:53 12:13:19 69° 118° (ESE) 12:17:46 436.775 MHz
Oscar 11 16 Apr 12:11:01 12:13:40 16° 294° (WNW) 12:16:19 145.825 FM, Beacon 2401.500 USB
PCSat 16 Apr 12:21:05 12:25:20 24° 253° (WSW) 12:29:33 145.825 MHz
Oscar 19 16 Apr 12:50:17 12:53:43 18° 64° (ENE) 12:57:10 437.125 CW, 437.150 USB
Oscar 16 16 Apr 12:57:20 13:01:18 23° 66° (ENE) 13:05:16 437.025 USB, Beacon 2401.1428
AO-Echo 16 Apr 13:19:16 13:22:06 15° 63° (ENE) 13:24:54 ?
PANSAT 16 Apr 13:20:04 13:22:49 19° 187° (S) 13:25:33 not established
Uribyol 2 16 Apr 13:26:29 13:30:28 23° 66° (ENE) 13:34:28 436.500 FM
KITSAT 1 16 Apr 13:49:06 13:57:06 65° 246° (WSW) 14:05:01 435.175 FM
Saudisat 1A 16 Apr 13:50:54 13:53:23 15° 316° (NW) 13:55:53 436.775 MHz
RS-15 16 Apr 13:51:50 13:58:33 17° 18° (NNE) 14:05:16 29.354 - 29.394 USB, Beacon 29.352 USB
AO-27 16 Apr 14:03:44 14:08:45 51° 72° (ENE) 14:13:46 436.795 MHz FM
ITAMSAT 1 16 Apr 14:15:11 14:20:18 64° 74° (ENE) 14:25:27 435.822 SSB
Oscar 19 16 Apr 14:27:40 14:32:38 51° 260° (W) 14:37:39 437.125 CW, 437.150 USB
TMSAT-1 16 Apr 14:29:32 14:33:08 19° 64° (ENE) 14:36:45 436.925 FM
Oscar 10/S400 16 Apr 14:35:00 15:50:56 21° 271° (W) 18:07:18 145.825 - 145.975 CW/USB, Beacon 145.810 USB
Oscar 16 16 Apr 14:35:37 14:40:23 39° 262° (W) 14:45:12 437.025 USB, Beacon 2401.1428
AO-Echo 16 Apr 14:55:02 15:00:18 67° 258° (WSW) 15:05:29 ?
AO-7 16 Apr 15:02:43 15:08:23 21° 54° (NE) 15:14:03 29.400 - 29.500 MHz
Uribyol 2 16 Apr 15:04:52 15:09:41 39° 261° (W) 15:14:32 436.500 FM
JAS-1B 16 Apr 15:05:08 15:11:59 30° 66° (ENE) 15:17:56 435.800 - 435.900 CW/SSB
Uosat F 16 Apr 15:12:54 15:16:10 18° 64° (ENE) 15:19:26 435.120 FM
Gurwin Techsat 1B 16 Apr 15:16:59 15:22:17 75° 75° (ENE) 15:27:35 435.225 FM
AO-27 16 Apr 15:45:07 15:48:31 18° 267° (W) 15:51:55 436.795 MHz FM
SO-50 16 Apr 15:46:17 15:49:42 22° 111° (ESE) 15:53:07 436.795 FM
OPAL 16 Apr 15:52:38 15:57:52 74° 105° (ESE) 16:03:04 ?
ITAMSAT 1 16 Apr 15:57:42 16:00:12 14° 269° (W) 16:02:43 435.822 SSB
RS-15 16 Apr 16:04:10 16:14:39 48° 49° (NE) 16:25:18 29.354 - 29.394 USB, Beacon 29.352 USB
TMSAT-1 16 Apr 16:07:30 16:12:38 51° 260° (W) 16:17:48 436.925 FM
ISS 16 Apr 16:41:57 16:45:17 82° 137° (SE) 16:48:39 145.800 FM
Uosat F 16 Apr 16:49:38 16:54:32 51° 260° (W) 16:59:26 435.120 FM
AO-7 16 Apr 16:51:52 17:00:09 85° 253° (WSW) 17:08:29 29.400 - 29.500 MHz
JAS-1B 16 Apr 16:53:56 17:02:18 54° 259° (W) 17:09:22 435.800 - 435.900 CW/SSB
Gurwin Techsat 1B 16 Apr 17:00:57 17:02:46 12° 270° (W) 17:04:34 435.225 FM
SO-50 16 Apr 17:25:53 17:30:01 36° 307° (NW) 17:34:12 436.795 FM
OPAL 16 Apr 17:33:31 17:36:06 14° 300° (WNW) 17:38:41 ?
RS-15 16 Apr 18:16:40 18:26:58 49° 250° (WSW) 18:37:36 29.354 - 29.394 USB, Beacon 29.352 USB
ISS 16 Apr 18:20:12 18:22:24 16° 336° (NNW) 18:24:37 145.800 FM
Hamsat 16 Apr 18:25:10 18:29:16 58° 75° (ENE) 18:33:26 145.90 MHz
UOSAT-12 16 Apr 18:25:51 18:30:13 50° 116° (ESE) 18:34:41 437.025 FM, 437.400 FM
JAS-2 16 Apr 18:27:56 18:32:38 25° 68° (ENE) 18:36:59 435.800 - 435.900 CW/SSB, 435.910 FM
STRAND 1 16 Apr 18:28:58 18:29:52 10° 90° (E) 18:30:46 ?
SO-67 16 Apr 18:46:07 18:48:02 14° 69° (ENE) 18:49:58 435.3500 MHz FM
AO-7 16 Apr 18:49:45 18:53:57 15° 269° (W) 18:58:10 29.400 - 29.500 MHz
STRAND 1 16 Apr 20:04:29 20:09:35 77° 285° (WNW) 20:14:39 ?
UOSAT-12 16 Apr 20:07:21 20:10:39 19° 314° (NW) 20:14:00 437.025 FM, 437.400 FM
JAS-2 16 Apr 20:11:46 20:17:32 42° 260° (W) 20:22:46 435.800 - 435.900 CW/SSB, 435.910 FM
SO-67 16 Apr 20:17:54 20:20:56 28° 263° (W) 20:24:00 435.3500 MHz FM
Saudisat 1A 16 Apr 20:37:49 20:41:49 32° 52° (NE) 20:45:45 436.775 MHz
HO-68 16 Apr 20:46:08 20:52:46 44° 66° (ENE) 20:59:26 435.675 MHz FM
Oscar 11 16 Apr 21:27:24 21:31:00 27° 70° (ENE) 21:34:37 145.825 FM, Beacon 2401.500 USB
ISS 16 Apr 21:37:10 21:38:25 12° 17° (NNE) 21:39:41 145.800 FM
MaSat-1 16 Apr 22:12:00 22:15:00 39° 112° (ESE) 22:17:37 437.345 MHz
Saudisat 1A 16 Apr 22:17:44 22:21:14 24° 248° (WSW) 22:24:43 436.775 MHz
HO-68 16 Apr 22:34:15 22:40:31 33° 263° (W) 22:46:50 435.675 MHz FM
FUNcube-1 16 Apr 22:44:18 22:48:29 60° 75° (ENE) 22:52:37 145.950 - 145.970 MHz USB
Oscar 11 16 Apr 23:03:41 23:07:08 23° 265° (W) 23:10:37 145.825 FM, Beacon 2401.500 USB
ISS 16 Apr 23:12:35 23:15:51 47° 36° (NE) 23:19:06 145.800 FM
SO-50 17 Apr 00:19:36 00:22:23 15° 44° (NE) 00:25:09 436.795 FM
Sapphire 17 Apr 00:33:08 00:37:07 21° 106° (ESE) 00:41:06 437.095 MHz 1200 baud AX-25 AFSK
ISS 17 Apr 00:50:11 00:52:19 16° 231° (SW) 00:54:26 145.800 FM
Oscar 10/S400 17 Apr 00:53:02 00:57:22 11° 134° (SE) 01:02:04 145.825 - 145.975 CW/USB, Beacon 145.810 USB
PCSat 17 Apr 01:16:42 01:21:59 58° 113° (ESE) 01:27:18 145.825 MHz
OPAL 17 Apr 01:30:43 01:32:44 12° 59° (ENE) 01:34:45 ?
SO-50 17 Apr 01:58:46 02:03:25 70° 242° (WSW) 02:08:06 436.795 FM
Sapphire 17 Apr 02:14:57 02:20:09 48° 302° (WNW) 02:25:24 437.095 MHz 1200 baud AX-25 AFSK
AO-27 17 Apr 02:19:30 02:23:22 21° 94° (E) 02:27:12 436.795 MHz FM
KITSAT 1 17 Apr 02:22:04 02:27:58 23° 103° (ESE) 02:33:52 435.175 FM
ITAMSAT 1 17 Apr 02:30:34 02:34:54 26° 96° (E) 02:39:11 435.822 SSB
Oscar 19 17 Apr 02:40:58 02:46:10 67° 102° (ESE) 02:51:19 437.125 CW, 437.150 USB
Oscar 16 17 Apr 02:48:44 02:53:58 86° 103° (ESE) 02:59:10 437.025 USB, Beacon 2401.1428
UOSAT-12 17 Apr 02:57:24 03:01:29 28° 50° (NE) 03:05:32 437.025 FM, 437.400 FM
PCSat 17 Apr 03:01:49 03:05:47 20° 311° (NW) 03:09:46 145.825 MHz
AO-Echo 17 Apr 03:04:43 03:09:19 44° 99° (E) 03:13:48 ?
OPAL 17 Apr 03:05:55 03:10:54 78° 255° (WSW) 03:16:00 ?
Uribyol 2 17 Apr 03:19:03 03:24:15 85° 104° (ESE) 03:29:26 436.500 FM
Gurwin Techsat 1B 17 Apr 03:35:29 03:40:19 35° 97° (E) 03:45:07 435.225 FM
AO-27 17 Apr 03:58:10 04:03:01 42° 289° (WNW) 04:07:51 436.795 MHz FM
ITAMSAT 1 17 Apr 04:09:46 04:14:23 34° 291° (WNW) 04:18:59 435.822 SSB
KITSAT 1 17 Apr 04:14:28 04:22:33 72° 301° (WNW) 04:30:42 435.175 FM
Oscar 19 17 Apr 04:22:09 04:24:54 15° 298° (WNW) 04:27:39 437.125 CW, 437.150 USB
TMSAT-1 17 Apr 04:25:04 04:30:23 75° 102° (ESE) 04:35:40 436.925 FM
Oscar 16 17 Apr 04:30:59 04:32:33 11° 300° (WNW) 04:34:07 437.025 USB, Beacon 2401.1428
UOSAT-12 17 Apr 04:37:27 04:41:38 32° 247° (WSW) 04:45:47 437.025 FM, 437.400 FM
JAS-1B 17 Apr 04:41:27 04:46:51 44° 100° (E) 04:52:27 435.800 - 435.900 CW/SSB
AO-Echo 17 Apr 04:44:34 04:47:43 18° 295° (WNW) 04:50:49 ?
AO-7 17 Apr 04:55:58 05:03:30 37° 99° (E) 05:10:59 29.400 - 29.500 MHz
Uosat F 17 Apr 04:59:09 05:04:05 57° 101° (E) 05:08:58 435.120 FM
Uribyol 2 17 Apr 05:01:27 05:02:58 11° 300° (WNW) 05:04:30 436.500 FM
Gurwin Techsat 1B 17 Apr 05:15:43 05:20:07 27° 293° (WNW) 05:24:29 435.225 FM
STRAND 1 17 Apr 05:42:20 05:45:03 15° 63° (ENE) 05:47:47 ?
TMSAT-1 17 Apr 06:07:11 06:09:38 13° 298° (WNW) 06:12:04 436.925 FM
